Hourly Weather Aalen

Today, 25 October, Sunday

Time Temperature Precipitation Wind Pressure Humidity
00:00 +7°C° 0 mm 2 mps 719 mmHg 92%
01:00 +7°C° 0 mm 2 mps 719 mmHg 93%
02:00 +7°C° 0 mm 2 mps 719 mmHg 93%
03:00 +7°C° 0 mm 2 mps 718 mmHg 93%
04:00 +7°C° 0 mm 2 mps 718 mmHg 94%
05:00 +7°C° 0 mm 2 mps 718 mmHg 93%
06:00 +7°C° 0 mm 2 mps 717 mmHg 93%
07:00 +7°C° 0 mm 2 mps 717 mmHg 92%
08:00 +8°C° 0 mm 2 mps 717 mmHg 87%
09:00 +10°C° 0 mm 3 mps 717 mmHg 81%
10:00 +11°C° 0 mm 3 mps 717 mmHg 76%
11:00 +13°C° 0 mm 3 mps 716 mmHg 72%
12:00 +14°C° 0 mm 3 mps 716 mmHg 68%
13:00 +16°C° 0 mm 3 mps 716 mmHg 63%
14:00 +16°C° 0 mm 3 mps 715 mmHg 67%
15:00 +15°C° 0 mm 2 mps 714 mmHg 71%
16:00 +15°C° 0 mm 2 mps 714 mmHg 74%
17:00 +14°C° 0 mm 2 mps 714 mmHg 76%
18:00 +12°C° 0 mm 2 mps 714 mmHg 77%
19:00 +10°C° 0 mm 2 mps 714 mmHg 79%
20:00 +11°C° 0 mm 1 mps 714 mmHg 78%
21:00 +10°C° 0 mm 1 mps 714 mmHg 78%
22:00 +10°C° 0 mm 1 mps 714 mmHg 77%
23:00 +10°C° 0 mm 1 mps 714 mmHg 83%

Tomorrow, 26 October, Monday

Time Temperature Precipitation Wind Pressure Humidity
00:00 +8°C° 0 mm 2 mps 714 mmHg 89%
01:00 +8°C° 0 mm 2 mps 714 mmHg 94%
02:00 +8°C° 0.2 mm 2 mps 714 mmHg 95%
03:00 +8°C° 0.2 mm 2 mps 714 mmHg 95%
04:00 +8°C° 0.2 mm 2 mps 714 mmHg 96%
05:00 +8°C° 1.2 mm 2 mps 714 mmHg 96%
06:00 +8°C° 1.2 mm 2 mps 714 mmHg 96%
07:00 +8°C° 1.2 mm 2 mps 714 mmHg 96%
08:00 +8°C° 1 mm 2 mps 714 mmHg 96%
09:00 +9°C° 1 mm 1 mps 714 mmHg 95%
10:00 +9°C° 1 mm 1 mps 714 mmHg 94%
11:00 +9°C° 0.8 mm 1 mps 714 mmHg 94%
12:00 +9°C° 0.8 mm 1 mps 714 mmHg 94%
13:00 +8°C° 0.8 mm 2 mps 714 mmHg 94%
14:00 +9°C° 0.3 mm 1 mps 714 mmHg 94%
15:00 +9°C° 0.3 mm 1 mps 714 mmHg 94%
16:00 +8°C° 0.3 mm 1 mps 714 mmHg 95%
17:00 +8°C° 0.2 mm 1 mps 714 mmHg 95%
18:00 +8°C° 0.2 mm 1 mps 715 mmHg 95%
19:00 +8°C° 0.2 mm 1 mps 715 mmHg 95%
20:00 +8°C° 0.2 mm 1 mps 715 mmHg 95%
21:00 +8°C° 0.2 mm 1 mps 715 mmHg 95%
22:00 +6°C° 0.2 mm 2 mps 715 mmHg 95%
23:00 +6°C° 0 mm 2 mps 715 mmHg 94%

Day after tomorrow, 27 October, Tuesday

Time Temperature Precipitation Wind Pressure Humidity
00:00 +6°C° 0 mm 2 mps 716 mmHg 94%
01:00 +6°C° 0 mm 2 mps 716 mmHg 94%
02:00 +6°C° 0 mm 2 mps 716 mmHg 94%
03:00 +6°C° 0 mm 2 mps 715 mmHg 94%
04:00 +5°C° 0 mm 2 mps 715 mmHg 94%
05:00 +5°C° 0 mm 2 mps 716 mmHg 94%
06:00 +5°C° 0 mm 2 mps 716 mmHg 94%
07:00 +5°C° 0 mm 2 mps 716 mmHg 94%
08:00 +6°C° 0 mm 2 mps 716 mmHg 90%
09:00 +7°C° 0 mm 3 mps 716 mmHg 86%
10:00 +8°C° 0 mm 3 mps 717 mmHg 82%
11:00 +9°C° 0.1 mm 3 mps 717 mmHg 79%
12:00 +10°C° 0.1 mm 3 mps 717 mmHg 75%
13:00 +10°C° 0.1 mm 3 mps 717 mmHg 72%
14:00 +10°C° 0.1 mm 3 mps 717 mmHg 74%
15:00 +10°C° 0.1 mm 3 mps 717 mmHg 76%
16:00 +9°C° 0.1 mm 2 mps 717 mmHg 78%
17:00 +8°C° 0 mm 2 mps 717 mmHg 82%
18:00 +7°C° 0 mm 3 mps 717 mmHg 87%
19:00 +4°C° 0 mm 3 mps 717 mmHg 92%
20:00 +4°C° 0 mm 3 mps 717 mmHg 91%
21:00 +4°C° 0 mm 3 mps 717 mmHg 91%
22:00 +4°C° 0 mm 3 mps 717 mmHg 90%
23:00 +4°C° 0 mm 3 mps 717 mmHg 89%

28 October, Wednesday

Time Temperature Precipitation Wind Pressure Humidity
00:00 +4°C° 0 mm 3 mps 717 mmHg 88%
01:00 +4°C° 0 mm 3 mps 717 mmHg 87%
02:00 +4°C° 0.1 mm 3 mps 717 mmHg 83%
03:00 +5°C° 0.1 mm 3 mps 717 mmHg 80%
04:00 +5°C° 0.1 mm 3 mps 717 mmHg 77%
05:00 +5°C° 0.2 mm 3 mps 717 mmHg 78%
06:00 +5°C° 0.2 mm 4 mps 717 mmHg 80%
07:00 +6°C° 0.2 mm 4 mps 717 mmHg 81%
08:00 +7°C° 0 mm 4 mps 717 mmHg 80%
09:00 +8°C° 0 mm 4 mps 717 mmHg 78%
10:00 +10°C° 0 mm 4 mps 718 mmHg 77%
11:00 +10°C° 0 mm 5 mps 718 mmHg 75%
12:00 +10°C° 0 mm 5 mps 718 mmHg 73%
13:00 +12°C° 0 mm 5 mps 718 mmHg 70%
14:00 +12°C° 0 mm 4 mps 718 mmHg 72%
15:00 +12°C° 0 mm 4 mps 718 mmHg 74%
16:00 +12°C° 0 mm 3 mps 718 mmHg 76%
17:00 +11°C° 0 mm 3 mps 718 mmHg 78%
18:00 +10°C° 0 mm 3 mps 718 mmHg 81%
19:00 +9°C° 0 mm 3 mps 718 mmHg 83%
20:00 +8°C° 0 mm 4 mps 719 mmHg 84%
21:00 +8°C° 0 mm 4 mps 719 mmHg 85%
22:00 +8°C° 0 mm 4 mps 719 mmHg 87%
23:00 +8°C° 0.1 mm 4 mps 719 mmHg 87%

29 October, Thursday

Time Temperature Precipitation Wind Pressure Humidity
00:00 +8°C° 0.1 mm 4 mps 719 mmHg 87%
01:00 +8°C° 0.1 mm 5 mps 719 mmHg 87%
02:00 +8°C° 0.3 mm 4 mps 719 mmHg 89%
03:00 +8°C° 0.3 mm 4 mps 719 mmHg 90%
04:00 +8°C° 0.3 mm 4 mps 719 mmHg 91%
05:00 +8°C° 0.1 mm 4 mps 720 mmHg 91%
06:00 +7°C° 0.1 mm 4 mps 720 mmHg 91%
07:00 +7°C° 0.1 mm 4 mps 720 mmHg 90%
08:00 +8°C° 0 mm 4 mps 721 mmHg 87%
09:00 +9°C° 0 mm 5 mps 721 mmHg 84%
10:00 +9°C° 0 mm 5 mps 722 mmHg 81%
11:00 +10°C° 0.1 mm 6 mps 722 mmHg 78%
12:00 +11°C° 0.1 mm 6 mps 722 mmHg 75%
13:00 +11°C° 0.1 mm 7 mps 722 mmHg 72%
14:00 +12°C° 0 mm 5 mps 722 mmHg 74%
15:00 +11°C° 0 mm 4 mps 722 mmHg 76%
16:00 +11°C° 0 mm 3 mps 722 mmHg 77%
17:00 +10°C° 0 mm 3 mps 723 mmHg 80%
18:00 +9°C° 0 mm 3 mps 723 mmHg 83%
19:00 +9°C° 0 mm 3 mps 724 mmHg 86%
20:00 +9°C° 0 mm 3 mps 724 mmHg 85%
21:00 +8°C° 0 mm 4 mps 724 mmHg 84%
22:00 +8°C° 0 mm 4 mps 724 mmHg 84%
23:00 +8°C° 0 mm 4 mps 724 mmHg 83%

30 October, Friday

Time Temperature Precipitation Wind Pressure Humidity
00:00 +8°C° 0 mm 4 mps 724 mmHg 82%
01:00 +10°C° 0 mm 4 mps 724 mmHg 81%
02:00 +9°C° 0 mm 3 mps 724 mmHg 82%
03:00 +9°C° 0 mm 3 mps 724 mmHg 84%
04:00 +8°C° 0 mm 3 mps 724 mmHg 86%
05:00 +8°C° 0 mm 3 mps 724 mmHg 87%
06:00 +8°C° 0 mm 3 mps 724 mmHg 88%
07:00 +8°C° 0 mm 2 mps 724 mmHg 88%
08:00 +9°C° 0 mm 2 mps 724 mmHg 84%
09:00 +10°C° 0 mm 2 mps 724 mmHg 79%
10:00 +13°C° 0 mm 2 mps 724 mmHg 75%
11:00 +14°C° 0 mm 2 mps 724 mmHg 72%
12:00 +15°C° 0 mm 2 mps 724 mmHg 69%
13:00 +16°C° 0 mm 2 mps 724 mmHg 66%
14:00 +16°C° 0 mm 2 mps 724 mmHg 70%
15:00 +15°C° 0 mm 2 mps 724 mmHg 74%
16:00 +15°C° 0 mm 1 mps 723 mmHg 78%
17:00 +13°C° 0 mm 2 mps 723 mmHg 81%
18:00 +12°C° 0 mm 2 mps 723 mmHg 84%
19:00 +10°C° 0 mm 2 mps 723 mmHg 87%
20:00 +9°C° 0 mm 2 mps 723 mmHg 86%
21:00 +9°C° 0 mm 2 mps 723 mmHg 84%
22:00 +9°C° 0 mm 2 mps 723 mmHg 83%
23:00 +9°C° 0 mm 1 mps 723 mmHg 82%
Show more